STARLINK-1927 (47181 NORAD) Tracking and Keplerian Element Data
This shows tracking and keplerian element data for the satellite.
Feedback or suggestion? Click here.
Element | Value |
Catalog | 47181 |
Name | STARLINK-1927 |
Epoch Orbit | 176 |
Epoch Day | 106.00001157 |
Epoch Year | 2021 |
RAAN | 31.3493 |
Inclination | 53.0556 |
Eccentricity | 0.0001775 |
Argument of Perigee | 67.9968 |
Mean Anonmoly | 291.276 |
Mean Motion | 15.06409365 |
Decay Rate | -0.00026064 |
L1 | 1 47181U 20088BM 21106.00001157 -.00026064 00000-0 -17368-2 0 9990 |
L2 | 2 47181 53.0556 31.3493 0001775 67.9968 291.2760 15.06409365 1765 |
Live tracking and technical data element details for STARLINK-1927 (NORAD 47181). STARLINK-1927 can be tracked NOW for your location showing map with azimuth and elevation plus other details from your city location.
Track the satellite on the map from your city or location and see movement details for azimuth, elevation, latitude, longitude, range, height, and movement on the map or in text.
IsCatalogInMostPopularTable: catalog: 47181, numindb: 56
Update: records affected: 1
GetName: 47181 STARLINK-1927
Hit Count: updated at: Fri, 16 Apr 2021 10:21:26 GMT